User: anonymous   Login
Location: Vancouver
(49.2500°N, 123.1330°W)
Time: 05:03:27
(UTC-07:00)
Language:

ISS - Orbit

View from above orbital plane
View from above orbital plane
View from above satellite
View from above satellite

Ground track
Ground track

The orbit data is extracted from the following two-line orbital elements,

1 25544U 98067A   15124.08281398  .00011464  00000-0  16622-3 0  9998
2 25544 051.6470 304.3055 0005146 296.1365 166.6193 15.56342228941175
Epoch (UTC): 04 May 2015 01:59:15
Eccentricity: 0.0005146
inclination: 51.6470°
perigee height: 395 km
apogee height: 402 km
right ascension of ascending node: 304.3055°
argument of perigee: 296.1365°
revolutions per day: 15.56342228
mean anomaly at epoch: 166.6193°
orbit number at epoch: 94117

The dashed part of the orbit path shows where the satellite is in the earth's shadow,  

DLR